This is the latest recevied weather packets stored in our database for station/object AE5PL. If no packets are shown the sender has not sent any weather packets the latest 1 day(s).
| Time | Temp. | Humidity | Pressure | Rain* | Wind** | Luminosity | Snow |
|---|---|---|---|---|---|---|---|
| 1778045250 | 14.44° C | 80% | 1009.3 hPa | - | 3.58 m/s, 337° | - | - |
| 1778044950 | 14.44° C | 80% | 1009.3 hPa | - | 3.58 m/s, 360° | - | - |
| 1778044650 | 14.44° C | 80% | 1009.2 hPa | - | 3.58 m/s, 360° | - | - |
| 1778044350 | 15° C | 80% | 1009.2 hPa | - | 3.13 m/s, 337° | - | - |
| 1778044050 | 15° C | 80% | 1009.1 hPa | - | 3.58 m/s, 360° | - | - |
| 1778043750 | 15° C | 80% | 1009.1 hPa | - | 3.58 m/s, 360° | - | - |
| 1778043450 | 15° C | 80% | 1009.1 hPa | - | 2.68 m/s, 337° | - | - |
| 1778043150 | 15.56° C | 81% | 1009 hPa | - | 2.24 m/s, 360° | - | - |
| 1778042850 | 15.56° C | 81% | 1009.1 hPa | - | 3.13 m/s, 360° | - | - |
| 1778042550 | 15.56° C | 81% | 1008.9 hPa | - | 3.13 m/s, 360° | - | - |
| 1778042250 | 15.56° C | 81% | 1008.9 hPa | - | 2.68 m/s, 22° | - | - |
| 1778041950 | 15.56° C | 81% | 1008.9 hPa | - | 3.13 m/s, 360° | - | - |
| 1778041650 | 16.11° C | 81% | 1008.9 hPa | - | 3.13 m/s, 337° | - | - |
| 1778041353 | 16.11° C | 81% | 1008.9 hPa | - | 2.24 m/s, 360° | - | - |
| 1778041050 | 16.11° C | 81% | 1008.7 hPa | - | 2.68 m/s, 360° | - | - |
| 1778040750 | 16.67° C | 81% | 1008.6 hPa | - | 2.68 m/s, 360° | - | - |
| 1778040450 | 16.67° C | 81% | 1008.6 hPa | - | 2.68 m/s, 360° | - | - |
| 1778040150 | 16.67° C | 81% | 1008.4 hPa | - | 2.68 m/s, 360° | - | - |
| 1778039850 | 16.67° C | 81% | 1008.3 hPa | - | 3.13 m/s, 360° | - | - |
| 1778039550 | 17.22° C | 81% | 1008.5 hPa | - | 3.58 m/s, 337° | - | - |
| 1778039250 | 17.22° C | 81% | 1008.5 hPa | - | 2.68 m/s, 337° | - | - |
| 1778038950 | 17.22° C | 81% | 1008.3 hPa | - | 2.68 m/s, 337° | - | - |
| 1778038650 | 17.22° C | 81% | 1008.2 hPa | - | 2.24 m/s, 360° | - | - |
| 1778038350 | 17.22° C | 81% | 1008.3 hPa | - | 3.13 m/s, 360° | - | - |
| 1778038050 | 17.78° C | 80% | 1008.2 hPa | - | 4.02 m/s, 337° | - | - |
* Rain since midnight (hover to see other rain measurements)
** Current wind speed in m/s (hover to see current wind gust speed)